DW9007 Weather Reports


Display with metric or nautical units.
time (UTC)temp
F
wind
direction
speed
MPH
gust
MPH
rain 1hr
in
rain 24hr
in
rain mn
in
humidity
%
barometer
mb
20260902204512 95 91 0.0 3.0 0.00 0.00 0.00 53 1014.3
20260902203006 95 106 1.0 7.0 0.00 0.00 0.00 54 1014.4
20260902201559 94 111 3.0 7.0 0.00 0.00 0.00 53 1014.6
20260902200043 94 115 1.0 5.0 0.00 0.00 0.00 55 1014.8
20260902194522 93 90 1.0 4.0 0.00 0.00 0.00 55 1015.1
20260902193020 92 111 0.0 1.0 0.00 0.00 0.00 61 1015.4
20260902191605 92 73 0.0 3.0 0.00 0.00 0.00 59 1015.6
20260902190059 93 126 0.0 5.0 0.00 0.00 0.00 57 1015.8
20260902184546 93 21 0.0 4.0 0.00 0.00 0.00 58 1016.0
20260902183048 92 88 0.0 1.0 0.00 0.00 0.00 61 1016.2
20260902181554 92 112 0.0 3.0 0.00 0.00 0.00 58 1016.2
20260902180105 92 137 0.0 3.0 0.00 0.00 0.00 60 1016.3
20260902174547 92 265 0.0 2.0 0.00 0.00 0.00 60 1016.5
20260902173046 92 304 0.0 2.0 0.00 0.00 0.00 61 1016.7
20260902171544 93 119 0.0 3.0 0.00 0.00 0.00 60 1017.0
20260902170044 92 153 0.0 3.0 0.00 0.00 0.00 64 1017.1
20260902164524 91 234 0.0 4.0 0.00 0.00 0.00 66 1017.3
20260902163027 90 84 0.0 4.0 0.00 0.00 0.00 65 1017.4
20260902161508 89 20 0.0 4.0 0.00 0.00 0.00 67 1017.6
20260902160009 89 99 1.0 5.0 0.00 0.00 0.00 69 1017.7
20260902154549 88 351 0.0 3.0 0.00 0.00 0.00 75 1017.9
20260902153049 86 302 0.0 1.0 0.00 0.00 0.00 77 1017.9
20260902151550 85 106 0.0 3.0 0.00 0.00 0.00 81 1017.9
20260902150047 84 106 0.0 1.0 0.00 0.00 0.00 84 1017.8
20260902144559 82 106 0.0 2.0 0.00 0.00 0.00 86 1017.7
20260902143046 81 106 0.0 0.0 0.00 0.00 0.00 88 1017.6
20260902141547 79 106 0.0 1.0 0.00 0.00 0.00 89 1017.6
20260902140051 78 106 0.0 0.0 0.00 0.00 0.00 91 1017.6
20260902134549 77 106 0.0 0.0 0.00 0.00 0.00 93 1017.7
20260902133048 76 106 0.0 0.0 0.00 0.00 0.00 94 1017.6
20260902131545 75 106 0.0 0.0 0.00 0.00 0.00 94 1017.6
20260902130045 74 106 0.0 0.0 0.00 0.00 0.00 94 1017.6
20260902124544 74 106 0.0 0.0 0.00 0.00 0.00 94 1017.5
20260902123046 73 106 0.0 0.0 0.00 0.00 0.00 94 1017.5
20260902121522 73 106 0.0 0.0 0.00 0.00 0.00 94 1017.4
20260902120021 73 106 0.0 0.0 0.00 0.00 0.00 93 1017.4
20260902114502 73 106 0.0 0.0 0.00 0.00 0.00 93 1017.2
20260902113100 73 106 0.0 0.0 0.00 0.00 0.00 93 1017.1
20260902111545 73 106 0.0 0.0 0.00 0.00 0.00 93 1016.9
20260902110040 73 106 0.0 0.0 0.00 0.00 0.00 93 1016.8
20260902104535 73 106 0.0 0.0 0.00 0.00 0.00 92 1016.7
20260902103020 73 106 0.0 0.0 0.00 0.00 0.00 92 1016.6
20260902101506 73 106 0.0 0.0 0.00 0.00 0.00 92 1016.5
20260902100001 73 106 0.0 0.0 0.00 0.00 0.00 92 1016.4
20260902094542 74 106 0.0 0.0 0.00 0.00 0.00 92 1016.2
20260902093041 74 106 0.0 0.0 0.00 0.00 0.00 92 1016.1
20260902091525 74 106 0.0 0.0 0.00 0.00 0.00 91 1016.0
20260902090022 74 106 0.0 0.0 0.00 0.00 0.00 91 1015.9
20260902084504 74 106 0.0 0.0 0.00 0.00 0.00 91 1015.8
20260902083006 74 106 0.0 0.0 0.00 0.00 0.00 91 1015.7
20260902081546 74 106 0.0 0.0 0.00 0.00 0.00 91 1015.7
20260902080057 75 106 0.0 0.0 0.00 0.00 0.00 91 1015.6
20260902074526 75 106 0.0 0.0 0.00 0.00 0.00 90 1015.5
20260902073024 75 106 0.0 0.0 0.00 0.00 0.00 90 1015.5
20260902071506 75 106 0.0 0.0 0.00 0.00 0.00 89 1015.5
20260902070007 75 106 0.0 0.0 0.00 0.00 0.00 89 1015.5
20260902064604 75 106 0.0 0.0 0.00 0.00 0.00 89 1015.5
20260902063047 76 106 0.0 0.0 0.00 0.00 0.00 88 1015.5
20260902061552 76 106 0.0 0.0 0.00 0.00 0.00 88 1015.6
20260902060039 76 106 0.0 0.0 0.00 0.00 0.00 87 1015.6
20260902054537 76 106 0.0 0.0 0.00 0.00 0.00 87 1015.8
20260902053007 77 106 0.0 0.0 0.00 0.00 0.00 86 1015.8
20260902051550 77 106 0.0 0.0 0.00 0.00 0.00 85 1015.8
20260902050048 77 106 0.0 0.0 0.00 0.00 0.00 85 1015.8
20260902044527 77 106 0.0 0.0 0.00 0.00 0.00 84 1015.8
20260902043032 78 106 0.0 0.0 0.00 0.00 0.00 83 1016.0
20260902041506 78 106 0.0 0.0 0.00 0.00 0.00 83 1016.1
20260902040005 78 106 0.0 0.0 0.00 0.00 0.00 82 1016.1
20260902034557 78 106 0.0 0.0 0.00 0.00 0.00 82 1016.1
20260902033059 79 106 0.0 0.0 0.00 0.00 0.00 81 1016.1
20260902031529 79 106 0.0 0.0 0.00 0.00 0.00 80 1016.1
20260902030025 79 106 0.0 0.0 0.00 0.00 0.00 80 1016.1
20260902024506 80 106 0.0 0.0 0.00 0.00 0.00 79 1016.1
20260902023005 80 106 0.0 0.0 0.00 0.00 0.00 78 1016.1
20260902021546 81 106 0.0 0.0 0.00 0.00 0.00 77 1016.0
20260902020043 81 106 0.0 0.0 0.00 0.00 0.00 76 1015.8
20260902014528 82 106 0.0 0.0 0.00 0.00 0.00 74 1015.5
20260902013021 82 106 0.0 0.0 0.00 0.00 0.00 73 1015.5
20260902011501 83 106 0.0 0.0 0.00 0.00 0.00 72 1015.4
20260902010105 83 106 0.0 0.0 0.00 0.00 0.00 70 1015.2
20260902004539 84 106 0.0 0.0 0.00 0.00 0.00 68 1015.1
20260902003037 85 106 0.0 0.0 0.00 0.00 0.00 67 1015.1
20260902001516 86 106 0.0 0.0 0.00 0.00 0.00 65 1015.1
20260902000016 87 106 0.0 0.0 0.00 0.00 0.00 63 1015.1
20260901234555 89 106 0.0 0.0 0.00 0.00 0.00 61 1015.2
20260901233050 90 107 0.0 0.0 0.00 0.00 0.00 58 1015.2
20260901231525 91 107 0.0 0.0 0.00 0.00 0.00 56 1015.1
20260901230024 92 107 0.0 0.0 0.00 0.00 0.00 53 1015.2
20260901224513 93 107 0.0 0.0 0.00 0.00 0.00 53 1015.0
20260901223003 93 107 0.0 1.0 0.00 0.00 0.00 51 1015.0
20260901221606 94 113 0.0 2.0 0.00 0.00 0.00 49 1015.0
20260901220044 95 277 0.0 4.0 0.00 0.00 0.00 50 1015.0
20260901214548 94 71 0.0 2.0 0.00 0.00 0.00 51 1015.0
20260901213029 94 125 1.0 5.0 0.00 0.00 0.00 48 1015.1
20260901211528 94 93 1.0 5.0 0.00 0.00 0.00 49 1015.2
20260901210026 94 109 1.0 4.0 0.00 0.00 0.00 48 1015.3